#timestamp,LO_Frequency,Hit,StdDev 
1708578015.2,286047000.6,N
1708578035.9,286047000.8,N
1708578055.7,286047000.8,N
1708578075.6,286047001.1,N
1708578095.4,286046999.9,N
1708578115.2,286047000.4,N
1708578135.1,286047000.4,N
1708578136.0,286047000.4,N
1708578155.8,286047000.8,N
1708578175.7,286046998.3,N
1708578195.5,286047000.8,N
1708578215.3,286047000.7,N
1708578235.2,286046998.8,N
1708578255.0,286047001.1,N
1708578255.9,286047001.1,N
1708578275.7,286047000.4,N
1708578295.6,286047000.4,N
1708578315.4,286047000.2,N
1708578335.3,286047002.7,N
1708578355.1,286047000.1,N
1708578375.8,286047002.6,N
1708578395.7,286047004.3,Y
1708578415.5,286047001.8,P
1708578435.4,286047001.3,N
1708578455.2,286047003.8,P
1708578475.0,286047004.1,Y
1708578475.9,286047004.1,P
1708578495.8,286047001.6,N
1708578515.6,286047004.4,P
1708578535.5,286047004.4,Y
1708578555.3,286047000.1,P
1708578575.1,286047000.5,N
1708578595.9,286046998.1,N
1708578615.7,286047001.1,N
1708578635.6,286047000.7,N
1708578655.4,286046999.7,N
1708578675.2,286046999.8,N
1708578695.1,286046999.9,N
1708578696.0,286046999.9,N
1708578715.8,286047002.4,N
1708578735.6,286047000.1,N
1708578755.5,286047000.0,N
1708578775.3,286047000.2,N
1708578795.2,286047000.6,N
1708578815.9,286047000.4,N
1708578835.7,286047002.8,N
1708578855.6,286047002.7,N
1708578875.4,286047001.5,N
1708578895.3,286047004.0,Y
1708578915.1,286047004.1,P
1708578916.0,286047004.1,N
1708578935.8,286047003.7,N
1708578955.7,286047003.4,N
1708578975.5,286047005.5,Y
1708578995.3,286047002.4,P
1708579015.2,286047002.1,P
1708579035.0,286047002.0,P
1708579035.9,286047002.0,Y
1708579055.8,286047000.2,P
1708579075.6,286047002.3,N
1708579095.4,286047002.5,N
1708579115.3,286047002.5,N
1708579135.1,286047000.2,N
1708579155.9,286047002.8,N
1708579175.7,286047000.5,N
1708579195.5,286046999.8,N
1708579215.4,286047002.0,N
1708579235.2,286047002.5,N
1708579255.0,286047001.7,N
1708579255.9,286047001.7,N
1708579275.8,286047004.3,Y
1708579295.6,286047002.0,P
1708579315.5,286047001.8,P
1708579335.3,286047001.7,P
1708579355.1,286047002.0,Y
1708579375.9,286047000.9,P
1708579395.7,286047000.5,N
1708579415.6,286047000.8,N
1708579435.4,286047000.2,N
1708579455.2,286047000.4,N
1708579475.1,286047000.2,N
1708579476.0,286047000.2,N
1708579495.8,286047001.2,N
1708579515.6,286047000.5,N
1708579535.5,286046998.8,N
1708579555.3,286047001.2,N
1708579575.2,286047000.6,N
1708579595.9,286047000.8,N
1708579615.7,286046998.4,N
1708579635.6,286046998.2,N
1708579655.4,286046999.3,N
1708579675.2,286046999.4,N
1708579695.1,286046999.5,N
1708579696.0,286046999.5,N
1708579715.8,286046999.4,N
1708579735.7,286046999.0,N
1708579755.5,286046999.3,N
1708579775.3,286046999.5,N
1708579795.2,286046998.7,N
1708579815.0,286046998.5,N
1708579815.9,286046998.5,N
1708579835.8,286046999.4,N
1708579855.6,286046999.1,N
1708579875.4,286046999.5,N
1708579895.3,286046999.0,N
1708579915.1,286046999.1,N
1708579935.8,286046998.8,N
1708579955.7,286046996.5,Y
1708579975.5,286046996.5,P
1708579995.4,286046996.6,N
1708580015.2,286046996.6,N
1708580035.0,286046999.0,N
1708580035.9,286046999.0,N
1708580055.8,286046997.0,N
1708580075.6,286046997.0,N
1708580095.4,286046999.6,N
1708580115.3,286046996.7,N
1708580135.1,286046998.3,N
1708580155.9,286046998.4,N
1708580175.7,286046998.2,N
1708580195.5,286046998.2,N
1708580215.4,286046998.2,N
1708580235.2,286047000.8,N
1708580255.0,286046998.1,N
1708580255.9,286046998.1,N
1708580275.8,286047000.6,N
1708580295.6,286047000.4,N
1708580315.5,286047000.4,N
1708580335.3,286047000.1,N
1708580355.1,286046999.8,N
1708580375.9,286047000.2,N
1708580395.7,286047002.4,N
1708580415.5,286046999.7,N
1708580435.4,286047000.0,N
1708580455.2,286046999.8,N
1708580475.1,286046999.7,N
1708580476.0,286046999.7,N
1708580495.8,286047000.2,N
1708580515.6,286047000.2,N
1708580535.5,286046999.8,N
1708580555.3,286046999.9,N
1708580575.1,286047002.7,N
1708580595.9,286047000.6,N
1708580615.7,286046999.9,N
1708580635.6,286047000.3,N
1708580655.4,286046999.9,N
1708580675.2,286047001.0,N
1708580695.1,286047000.6,N
1708580696.0,286047000.6,N
1708580715.8,286047000.3,N
1708580735.7,286047001.0,N
1708580755.5,286047001.1,N
1708580775.3,286047000.3,N
1708580795.2,286047001.0,N
1708580815.0,286047000.7,N
1708580815.9,286047000.7,N
1708580835.7,286046999.0,N
1708580855.6,286046998.9,N
1708580875.4,286046998.2,N
1708580895.3,286047001.2,N
1708580915.1,286046999.0,N
1708580916.0,286046999.0,N
1708580935.8,286046999.0,N
1708580955.7,286046999.0,N
1708580975.5,286046998.7,N
1708580995.3,286046998.1,N
1708581015.2,286046999.2,N
1708581035.0,286046999.2,N
1708581035.9,286046999.2,N
1708581055.8,286046998.8,N
1708581075.6,286046998.5,N
1708581095.4,286047000.7,N
1708581115.3,286047000.9,N
1708581135.1,286047000.6,N
1708581155.9,286047000.5,N
1708581175.7,286047000.3,N
1708581195.5,286047000.4,N
1708581215.4,286047000.2,N
1708581235.2,286047001.0,N
1708581255.0,286047000.1,N
1708581255.9,286047000.1,N
1708581275.8,286047000.1,N
1708581295.6,286047002.7,N
1708581315.5,286047002.0,N
1708581335.3,286047001.5,N
1708581355.1,286047004.2,Y
1708581375.9,286047004.3,P
1708581395.7,286047003.5,N
1708581415.6,286047003.5,N
1708581435.4,286047003.7,N
1708581455.2,286047003.3,N
1708581475.1,286047003.3,N
1708581476.0,286047003.3,N
1708581495.8,286047005.9,Y
1708581515.7,286047002.6,P
1708581535.5,286047002.3,P
1708581555.3,286046999.7,N
1708581575.2,286047002.3,N
1708581595.0,286047001.6,N
1708581595.9,286047001.6,N
